Location: Asheville, NC
(35.6000°N, 82.5500°W)
Time: 19:00:37
(UTC-04:00)

AO-7 - Pass Details

Date: 12 January 2018
Orbit: 1439 x 1459 km, 101.7° (Epoch: 23 April)

Event Time Altitude Azimuth Distance (km) Brightness Sun altitude
Rises 06:44:33 0° 356° (N) 4,571 ? -11.2°
Reaches altitude 10° 06:51:13 10° 318° (NW) 3,585 ? -9.9°
Maximum altitude 06:52:02 10° 313° (NW) 3,570 ? -9.8°
Drops below altitude 10° 06:52:51 10° 307° (NW) 3,583 ? -9.6°
Enters shadow 06:53:17 10° 304° (NW) 3,600 ? -9.5°
